TimeEDT,TemperatureF,Dew PointF,Humidity,Sea Level PressureIn,VisibilityMPH,Wind Direction,Wind SpeedMPH,Gust SpeedMPH,PrecipitationIn,Events,Conditions,WindDirDegrees,DateUTC
12:14 AM,51.8,51.8,100,29.94,0.5,East,9.2,-,0.00,Fog,Fog,80,2011-10-14 04:14:00
12:53 AM,51.1,51.1,100,29.95,1.0,East,8.1,-,0.00,Rain,Light Rain,80,2011-10-14 04:53:00
1:16 AM,51.8,51.8,100,29.94,1.5,East,6.9,-,0.01,Rain,Light Rain,100,2011-10-14 05:16:00
1:25 AM,51.8,51.8,100,29.94,1.0,East,8.1,-,0.01,Rain,Light Rain,100,2011-10-14 05:25:00
1:53 AM,51.1,51.1,100,29.94,1.2,East,8.1,-,0.02,Rain,Light Rain,90,2011-10-14 05:53:00
2:53 AM,52.0,52.0,100,29.92,0.8,East,8.1,-,0.03,,Mist,80,2011-10-14 06:53:00
3:06 AM,51.8,51.8,100,29.91,1.0,East,9.2,-,N/A,,Mist,80,2011-10-14 07:06:00
3:23 AM,51.8,51.8,100,29.91,0.8,East,12.7,-,N/A,,Mist,90,2011-10-14 07:23:00
3:53 AM,52.0,52.0,100,29.91,0.2,East,10.4,-,N/A,Fog,Fog,90,2011-10-14 07:53:00
4:29 AM,51.8,51.8,100,29.91,1.2,East,8.1,-,0.00,Rain,Light Rain,90,2011-10-14 08:29:00
4:44 AM,51.8,51.8,100,29.90,1.5,East,8.1,-,0.01,Rain,Light Rain,90,2011-10-14 08:44:00
4:53 AM,52.0,52.0,100,29.91,1.2,East,8.1,-,0.01,,Overcast,90,2011-10-14 08:53:00
5:05 AM,51.8,51.8,100,29.90,0.8,East,9.2,-,N/A,,Mist,90,2011-10-14 09:05:00
5:53 AM,52.0,52.0,100,29.91,0.5,ESE,8.1,-,N/A,Fog,Fog,110,2011-10-14 09:53:00
6:53 AM,52.0,52.0,100,29.90,0.5,East,9.2,-,0.01,Fog,Fog,90,2011-10-14 10:53:00
7:53 AM,53.1,53.1,100,29.90,0.8,East,10.4,-,N/A,,Mist,100,2011-10-14 11:53:00
8:04 AM,53.6,53.6,100,29.89,1.0,East,9.2,-,N/A,,Mist,100,2011-10-14 12:04:00
8:15 AM,53.6,53.6,100,29.89,0.5,East,9.2,-,N/A,Fog,Fog,90,2011-10-14 12:15:00
8:30 AM,53.6,53.6,100,29.89,1.5,East,12.7,-,N/A,,Overcast,100,2011-10-14 12:30:00
8:32 AM,53.6,53.6,100,29.89,2.0,East,10.4,-,N/A,,Overcast,100,2011-10-14 12:32:00
8:40 AM,53.6,53.6,100,29.89,5.0,East,10.4,-,N/A,,Overcast,100,2011-10-14 12:40:00
8:53 AM,53.6,53.6,100,29.89,5.0,East,10.4,-,N/A,,Overcast,90,2011-10-14 12:53:00
9:02 AM,53.6,53.6,100,29.89,1.8,East,10.4,17.3,N/A,,Overcast,90,2011-10-14 13:02:00
9:10 AM,53.6,53.6,100,29.89,1.5,East,9.2,17.3,N/A,,Overcast,100,2011-10-14 13:10:00
9:14 AM,53.6,53.6,100,29.89,2.0,East,9.2,-,N/A,,Overcast,90,2011-10-14 13:14:00
9:25 AM,53.6,53.6,100,29.89,4.0,East,11.5,-,N/A,,Overcast,100,2011-10-14 13:25:00
9:53 AM,54.0,54.0,100,29.89,4.0,East,11.5,-,N/A,,Overcast,100,2011-10-14 13:53:00
10:08 AM,55.4,55.4,100,29.87,2.0,East,9.2,-,N/A,,Overcast,100,2011-10-14 14:08:00
10:25 AM,55.4,55.4,100,29.87,3.0,ESE,13.8,19.6,N/A,,Overcast,110,2011-10-14 14:25:00
10:37 AM,55.4,55.4,100,29.86,6.0,East,11.5,19.6,N/A,,Overcast,100,2011-10-14 14:37:00
10:53 AM,55.9,55.0,97,29.86,9.0,ESE,11.5,21.9,N/A,,Overcast,110,2011-10-14 14:53:00
11:24 AM,57.2,55.4,94,29.85,2.5,ESE,12.7,21.9,N/A,,Overcast,120,2011-10-14 15:24:00
11:35 AM,57.2,55.4,94,29.85,3.0,ESE,11.5,17.3,N/A,,Overcast,110,2011-10-14 15:35:00
11:53 AM,57.2,55.4,94,29.84,2.5,ESE,12.7,18.4,N/A,,Overcast,120,2011-10-14 15:53:00
12:20 PM,57.2,57.2,100,29.83,1.8,ESE,11.5,-,N/A,,Overcast,110,2011-10-14 16:20:00
12:30 PM,57.2,57.2,100,29.83,2.0,ESE,10.4,-,N/A,,Overcast,120,2011-10-14 16:30:00
12:53 PM,57.9,57.0,97,29.81,4.0,East,9.2,-,N/A,,Overcast,100,2011-10-14 16:53:00
1:21 PM,59.0,57.2,94,29.79,9.0,ESE,15.0,19.6,N/A,,Overcast,110,2011-10-14 17:21:00
1:53 PM,60.1,57.0,90,29.77,10.0,ESE,16.1,20.7,N/A,,Overcast,110,2011-10-14 17:53:00
2:53 PM,60.8,55.4,82,29.74,10.0,East,11.5,-,N/A,,Overcast,100,2011-10-14 18:53:00
3:53 PM,61.0,57.0,87,29.72,10.0,East,11.5,20.7,N/A,,Overcast,90,2011-10-14 19:53:00
4:07 PM,60.8,55.4,82,29.72,10.0,East,13.8,24.2,N/A,,Overcast,100,2011-10-14 20:07:00
4:26 PM,60.8,55.4,82,29.71,10.0,East,12.7,20.7,N/A,,Overcast,100,2011-10-14 20:26:00
4:53 PM,61.0,55.9,83,29.70,10.0,East,9.2,18.4,N/A,,Overcast,100,2011-10-14 20:53:00
5:53 PM,59.0,57.0,93,29.68,9.0,East,11.5,19.6,0.00,,Overcast,90,2011-10-14 21:53:00
6:53 PM,57.9,57.0,97,29.65,5.0,ENE,15.0,24.2,0.00,Rain,Light Rain,70,2011-10-14 22:53:00
7:53 PM,57.9,55.9,93,29.61,10.0,East,10.4,19.6,0.00,,Overcast,80,2011-10-14 23:53:00
8:39 PM,57.2,55.4,94,29.57,10.0,ENE,12.7,20.7,N/A,,Overcast,70,2011-10-15 00:39:00
8:53 PM,57.9,55.9,93,29.56,10.0,ENE,12.7,21.9,N/A,,Overcast,70,2011-10-15 00:53:00
9:46 PM,55.4,55.4,100,29.53,2.0,East,16.1,25.3,0.07,Rain,Rain,80,2011-10-15 01:46:00
9:53 PM,55.9,55.9,100,29.52,4.0,East,16.1,25.3,0.07,Rain,Light Rain,90,2011-10-15 01:53:00
10:01 PM,55.4,55.4,100,29.52,7.0,East,11.5,25.3,N/A,Rain,Light Rain,80,2011-10-15 02:01:00
10:14 PM,55.4,55.4,100,29.50,7.0,East,17.3,25.3,0.00,Rain,Light Rain,80,2011-10-15 02:14:00
10:31 PM,55.4,55.4,100,29.48,6.0,East,15.0,26.5,0.01,Rain,Light Rain,80,2011-10-15 02:31:00
10:53 PM,55.9,55.9,100,29.46,5.0,ENE,17.3,25.3,0.05,Rain,Light Rain,70,2011-10-15 02:53:00
11:39 PM,55.4,55.4,100,29.41,2.5,East,15.0,26.5,0.07,Rain,Rain,80,2011-10-15 03:39:00
11:53 PM,57.0,55.9,96,29.39,4.0,East,16.1,23.0,0.09,Rain,Rain,90,2011-10-15 03:53:00